CW2718 Weather Reports


Display with metric or nautical units.
time (UTC)temp
F
wind
direction
speed
MPH
gust
MPH
rain 1hr
in
rain 24hr
in
rain mn
in
humidity
%
barometer
mb
20260504021132 51 257 0.0 0.0 0.00 0.00 0.00 49 1012.0
20260504020132 51 257 0.0 0.0 0.00 0.00 0.00 47 1011.8
20260504015131 52 257 0.0 0.0 0.00 0.00 0.00 46 1011.7
20260504014132 52 257 0.0 0.0 0.00 0.00 0.00 46 1011.7
20260504012132 53 257 0.0 0.0 0.00 0.00 0.00 43 1011.6
20260504011131 54 257 0.0 0.0 0.00 0.00 0.00 43 1011.5
20260504010132 54 257 0.0 0.0 0.00 0.00 0.00 42 1011.4
20260504005131 55 257 0.0 0.0 0.00 0.00 0.00 41 1011.3
20260504004131 55 257 0.0 0.0 0.00 0.00 0.00 40 1011.2
20260504003131 56 257 0.0 0.0 0.00 0.00 0.00 39 1011.1
20260504002131 56 258 0.0 0.0 0.00 0.00 0.00 39 1010.9
20260504001131 57 258 0.0 0.0 0.00 0.00 0.00 38 1010.8
20260504000131 57 232 0.0 0.0 0.00 0.00 0.00 37 1010.7
20260503235131 58 246 0.0 0.0 0.00 0.00 0.00 36 1010.6
20260503234131 58 246 0.0 0.0 0.00 0.00 0.00 35 1010.5
20260503232131 59 268 0.0 6.0 0.00 0.00 0.00 34 1010.4
20260503231131 60 277 0.0 3.0 0.00 0.00 0.00 33 1010.5
20260503230131 60 296 0.0 9.0 0.00 0.00 0.00 32 1010.3
20260503225131 60 265 0.0 14.0 0.00 0.00 0.00 32 1010.3
20260503224130 60 259 8.0 14.0 0.00 0.00 0.00 31 1010.4
20260503223131 60 222 6.0 13.0 0.00 0.00 0.00 31 1010.3
20260503222131 60 266 2.0 15.0 0.00 0.00 0.00 31 1010.2
20260503220131 60 238 3.0 13.0 0.00 0.00 0.00 30 1010.2
20260503214131 60 254 0.0 14.0 0.00 0.00 0.00 30 1010.1
20260503212131 60 253 5.0 12.0 0.00 0.00 0.00 31 1010.2
20260503211131 61 223 4.0 15.0 0.00 0.00 0.00 30 1010.1
20260503210131 60 256 9.0 17.0 0.00 0.00 0.00 31 1010.2
20260503205131 60 235 3.0 9.0 0.00 0.00 0.00 32 1010.3
20260503202131 60 242 0.0 13.0 0.00 0.00 0.00 31 1010.5
20260503201132 59 246 0.0 13.0 0.00 0.00 0.00 33 1010.4
20260503200130 58 232 5.0 13.0 0.00 0.00 0.00 33 1010.4
20260503195131 59 263 3.0 16.0 0.00 0.00 0.00 33 1010.7
20260503194130 59 269 0.0 16.0 0.00 0.00 0.00 32 1010.7
20260503193130 59 285 7.0 10.0 0.00 0.00 0.00 34 1010.8
20260503192132 60 277 1.0 10.0 0.00 0.00 0.00 32 1011.1
20260503190131 58 236 3.0 13.0 0.00 0.00 0.00 35 1011.1
20260503185130 57 265 7.0 16.0 0.00 0.00 0.00 33 1011.0
20260503184131 58 284 6.0 20.0 0.00 0.00 0.00 31 1011.4
20260503183130 58 222 11.0 19.0 0.00 0.00 0.00 33 1011.5
20260503182131 59 257 5.0 19.0 0.00 0.00 0.00 36 1011.6
20260503181131 57 325 5.0 18.0 0.00 0.00 0.00 35 1011.4
20260503180130 57 281 10.0 22.0 0.00 0.00 0.00 34 1011.4
20260503175131 56 323 0.0 17.0 0.00 0.00 0.00 36 1011.4
20260503174131 56 247 4.0 14.0 0.00 0.00 0.00 35 1011.6
20260503173130 56 273 6.0 22.0 0.00 0.00 0.00 34 1011.7
20260503171130 55 296 0.0 13.0 0.00 0.00 0.00 37 1011.7
20260503170130 54 264 2.0 13.0 0.00 0.00 0.00 38 1011.7